Weather History for Blythe, CA

Change the Weather History Date:

Tuesday, February 19, 2013

  Actual Average Record
Temperature  
Mean Temperature 56 °F -  
Max Temperature 66 °F 69 °F 89 °F (1981)
Min Temperature 46 °F 46 °F 36 °F (2006)
Degree Days  
Heating Degree Days 9    
Growing Degree Days 6 (Base 50)    
Moisture  
Dew Point 32 °F    
Average Humidity 42    
Maximum Humidity 54    
Minimum Humidity 25    
Precipitation  
Precipitation 0.00 in - - ()
Sea Level Pressure  
Sea Level Pressure 29.74 in    
Wind  
Wind Speed 8 mph (SW)    
Max Wind Speed 28 mph    
Max Gust Speed 33 mph    
Visibility 10 miles    
Events      
Averages and records for this station are not official NWS values.
T = Trace of Precipitation, MM = Missing Value Source: NWS Daily Summary

Daily Weather History Graph

Daily Weather History Graph

Search for Another Location

Airport:

Trip Planner

Search our weather history database for the weather conditions in past years. The results will help you decide how hot, cold, wet, or windy it might be!

Date:

Astronomy

Feb. 19, 2013 Rise Set
Actual Time 6:18 AM PST 5:27 PM PST
Civil Twilight 5:53 AM PST 5:52 PM PST
Nautical Twilight 5:24 AM PST 6:21 PM PST
Astronomical Twilight 4:55 AM PST 6:50 PM PST
Moon 12:10 PM PST (2/19) 1:45 AM PST (2/19)
Length of Visible Light 11h 59m
Length of Day
11h 08m
Waxing Gibbous, 68% of the Moon is Illuminated
Feb 19
Waxing Gibbous
Feb 25
Full
Mar 4
Last Quarter
Mar 11
New
Mar 19
First Quarter

Hourly Weather History & Observations

Time (PST) Temp. Dew Point Humidity Pressure Visibility Wind Dir Wind Speed Gust Speed Precip Events Conditions
12:52 AM 51.1 °F 30.9 °F 46% 29.84 in 10.0 mi Calm Calm - N/A   Clear
1:52 AM 48.0 °F 30.0 °F 50% 29.82 in 10.0 mi Calm Calm - N/A   Clear
2:52 AM 46.9 °F 30.0 °F 52% 29.81 in 10.0 mi NNE 3.5 mph - N/A   Clear
3:52 AM 46.0 °F 30.0 °F 54% 29.79 in 10.0 mi Calm Calm - N/A   Clear
4:52 AM 46.9 °F 30.0 °F 52% 29.80 in 10.0 mi Calm Calm - N/A   Clear
5:52 AM 46.9 °F 30.9 °F 54% 29.79 in 10.0 mi Calm Calm - N/A   Clear
6:52 AM 50.0 °F 32.0 °F 50% 29.81 in 10.0 mi South 4.6 mph - N/A   Clear
7:52 AM 51.1 °F 35.1 °F 54% 29.81 in 10.0 mi South 4.6 mph - N/A   Clear
8:52 AM 59.0 °F 37.0 °F 44% 29.81 in 10.0 mi South 13.8 mph - N/A   Clear
10:52 AM 64.9 °F 30.9 °F 28% 29.78 in 10.0 mi South 13.8 mph - N/A   Clear
11:52 AM 64.9 °F 28.9 °F 26% 29.77 in 10.0 mi SSW 15.0 mph 25.3 mph N/A   Clear
12:52 PM 66.0 °F 28.9 °F 25% 29.74 in 10.0 mi SW 19.6 mph 23.0 mph N/A   Clear
1:52 PM 66.0 °F 28.9 °F 25% 29.71 in 10.0 mi SW 21.9 mph 28.8 mph N/A   Clear
2:52 PM 64.0 °F 30.9 °F 29% 29.70 in 10.0 mi SW 27.6 mph 33.4 mph N/A   Clear
4:52 PM 61.0 °F 32.0 °F 34% 29.67 in 10.0 mi SW 25.3 mph 28.8 mph N/A   Clear
5:52 PM 59.0 °F 33.1 °F 38% 29.67 in 10.0 mi SW 20.7 mph 27.6 mph N/A   Clear
6:52 PM 59.0 °F 33.1 °F 38% 29.69 in 10.0 mi SW 17.3 mph - N/A   Clear
7:52 PM 57.9 °F 34.0 °F 41% 29.67 in 10.0 mi SW 17.3 mph 27.6 mph N/A   Clear
8:52 PM 55.9 °F 33.1 °F 42% 29.67 in 10.0 mi WSW 16.1 mph - N/A   Clear
9:52 PM 54.0 °F 34.0 °F 47% 29.68 in 10.0 mi SW 19.6 mph - N/A   Clear
10:52 PM 53.1 °F 35.1 °F 50% 29.65 in 10.0 mi SW 20.7 mph - N/A   Clear
11:52 PM 53.1 °F 34.0 °F 48% 29.65 in 10.0 mi SW 21.9 mph 31.1 mph N/A   Scattered Clouds